CAPE
5 1 7 0 0 4 1 5 3 10 0 0 0 0 0 0 0 0 0 0 0 0 0 0 0 0 0 0 1 1 1 1 2 2 0 1 0 0 0 0 0 0 0 0
6 2 0 0 0 0 0 0 0 0 0 11 0 0 0 0 0 0 0 0 0 0 0 0 0 0 0 0 0 1 0 1 3 1 1 0 0 0 0 0 0 0 0 0
1 0 0 1 2 7 11 8 0 0 0 1 1 11 6 0 6 0 0 0 0 0 0 0 0 0 0 0 0 0 0 1 0 1 1 0 0 0 1 0 0 0 0 0
2 0 1 1 5 0 3 0 0 0 0 0 1 0 8 4 8 0 0 0 0 0 0 0 0 0 0 0 0 0 0 0 1 1 1 1 0 0 0 0 0 0 0 0
0 0 0 0 0 3 0 0 0 0 0 0 0 0 0 2 9 0 0 0 0 0 0 0 0 0 0 0 0 0 0 0 1 1 1 1 1 1 0 0 0 0 0 0
0 0 0 0 0 0 0 0 0 0 1 0 0 0 0 17 0 0 0 0 0 0 0 0 0 0 0 0 0 0 0 0 0 1 1 0 1 1 0 0 0 0 0 0
0 0 0 0 1 0 0 0 0 0 0 0 0 0 0 0 0 0 0 0 0 0 0 0 0 0 0 0 0 0 0 0 0 0 0 0 1 1 0 0 0 0 0 0
1 0 0 8 0 2 0 0 0 0 0 0 0 0 0 0 0 0 0 0 0 0 0 0 0 0 0 0 0 0 0 0 0 0 0 1 1 1 0 0 0 0 0 0
0 0 0 0 0 0 0 0 0 0 0 0 0 0 0 0 0 0 0 0 0 0 0 0 0 0 0 0 0 0 0 0 0 0 0 1 1 0 0 0 0 0 0 0
0 0 0 0 0 0 0 0 0 0 0 4 4 0 5 0 0 0 0 0 0 0 0 0 0 0 0 0 0 0 0 0 0 0 0 0 1 0 0 0 0 0 0 0
0 0 0 0 0 0 0 0 0 1 1 0 0 0 0 0 0 0 3 3 1 1 0 0 0 0 0 0 0 0 0 0 0 0 0 0 0 0 0 0 0 0 0 0
0 1 0 0 0 0 0 0 1 0 0 0 1 0 0 0 1 0 0 3 5 5 4 1 0 3 2 1 0 0 0 0 0 0 0 0 0 0 0 0 0 0 0 0
0 1 0 0 0 0 0 0 1 0 0 1 0 0 0 0 0 1 0 0 4 5 2 2 2 1 1 0 0 0 1 0 0 0 0 0 0 0 0 0 0 0 0 0
11 0 0 0 0 0 0 0 0 0 0 0 0 0 0 0 0 0 0 1 2 2 4 2 3 3 0 0 0 0 0 0 1 0 0 0 0 0 0 0 0 0 0 0
0 0 0 0 0 0 0 0 0 0 0 0 0 0 0 0 0 0 3 2 0 0 0 1 3 1 1 0 0 0 0 1 0 0 1 1 1 1 1 1 0 0 0 0
0 0 0 0 0 0 0 0 0 0 0 0 0 0 0 0 0 0 1 1 1 0 2 1 1 0 0 1 0 0 0 1 2 0 0 3 2 2 2 2 1 2 0 0
0 0 0 0 0 0 0 0 0 0 0 0 0 0 0 0 0 0 0 1 1 1 2 2 2 3 2 1 2 0 1 2 2 3 4 3 3 2 2 2 1 0 0 0
0 0 0 0 0 0 0 0 0 0 0 0 0 0 0 0 0 1 1 2 1 1 0 3 1 1 1 2 1 1 1 0 0 0 0 0 0 0 0 0 0 0 0 0
0 0 0 0 0 0 0 0 0 0 0 0 0 0 0 0 0 1 0 0 0 0 0 1 1 0 0 0 0 0 0 0 0 0 0 0 0 0 0 0 0 0 0 0
0 0 0 0 0 0 0 0 0 0 0 0 0 0 0 0 0 1 0 0 0 0 1 0 0 0 0 0 1 0 0 0 0 0 0 0 0 0 0 0 0 1 1 0
0 0 0 0 0 0 0 0 0 0 0 0 0 0 0 0 0 0 0 0 1 0 0 0 0 0 0 0 0 0 0 0 0 0 0 0 0 0 0 0 0 0 0 0
0 0 0 0 0 0 0 0 0 0 0 0 0 0 0 0 0 0 0 0 0 1 0 0 0 0 0 0 0 0 0 0 0 0 0 0 0 0 0 0 0 0 0 0
0 0 0 0 0 0 0 0 0 0 0 1 1 0 0 0 0 0 0 0 0 0 1 1 0 0 0 0 0 0 0 0 0 0 0 0 0 0 0 0 0 0 0 0
0 0 0 0 0 0 0 0 0 0 0 0 0 0 0 0 0 0 0 0 0 0 0 0 0 0 0 0 0 0 0 0 0 0 0 0 0 0 0 0 0 0 0 0
0 0 0 0 0 0 0 0 0 0 0 0 0 0 0 0 0 0 0 0 0 0 0 0 0 0 0 0 0 0 0 0 0 0 0 0 0 0 0 0 0 0 0 0
0 0 0 0 0 0 0 0 0 0 0 0 0 0 0 0 0 0 0 0 0 0 0 0 0 0 0 0 0 0 0 0 0 0 0 0 0 0 0 0 0 0 0 0
CIN
-4 -4 -3 0 0 -4 -4 -7 -6 -5 0 0 0 -4 0 0 0 0 0 0 0 0 0 0 0 0 0 0 -227 0 0 0 0 0 0 0 0 0 0 0 0 0 0 0
-3 -1 0 0 0 0 0 0 0 0 0 -4 -2 -1 0 0 0 0 0 0 0 0 0 0 0 0 0 0 0 0 0 0 0 0 0 0 0 0 0 0 0 0 0 0
0 0 -20 -3 -4 -4 -3 -2 0 0 0 -3 -2 -5 -1 -3 -4 0 0 0 0 0 0 0 0 0 0 0 0 0 0 0 0 0 0 0 0 0 0 0 0 0 0 0
-1 0 -2 -7 -4 0 -2 0 0 -1 0 0 -1 0 -5 -3 -3 -1 0 0 0 0 0 0 0 0 0 0 0 0 0 0 0 0 0 0 0 0 0 0 0 0 0 0
0 0 0 -2 0 -4 0 0 0 0 0 0 0 0 0 -4 -4 -1 0 0 0 0 0 0 0 0 0 0 0 0 0 0 0 0 0 0 0 0 0 0 0 0 0 0
0 0 0 0 0 0 -2 0 0 0 -2 -2 0 0 0 -5 0 0 0 0 0 0 0 0 0 0 0 0 0 0 0 0 0 0 0 0 0 0 0 0 0 0 0 0
0 0 0 0 0 0 0 0 0 0 0 0 0 0 0 -3 0 0 0 0 0 0 0 0 0 0 0 0 0 0 0 0 0 0 0 0 0 0 0 0 0 0 0 0
-2 0 0 -3 -2 -1 0 0 0 0 -3 0 0 0 0 0 0 0 0 0 0 0 0 0 0 0 0 0 0 0 0 0 0 0 0 0 0 0 0 0 0 0 0 0
0 0 0 0 0 0 0 0 0 0 0 0 -2 0 0 0 0 0 0 0 0 0 0 0 0 0 0 0 0 0 0 0 0 0 0 0 0 0 0 0 0 0 0 0
0 0 0 0 0 0 0 0 0 0 0 -1 -15 0 -2 0 0 0 0 0 0 0 0 0 0 0 0 0 0 0 0 0 0 0 0 0 0 0 0 0 0 0 0 0
0 0 0 0 0 0 0 0 0 -7 -1 0 0 0 0 0 0 0 0 0 0 0 0 0 0 0 0 0 0 0 0 0 0 0 0 0 0 0 0 0 0 0 0 0
0 0 0 0 0 0 0 -1 -2 -1 -2 -2 0 0 0 0 0 0 0 0 0 0 0 0 0 0 0 0 0 0 0 0 0 0 0 0 0 0 0 0 0 0 0 0
0 -2 0 0 0 0 0 0 0 0 0 -3 -3 0 0 0 0 0 0 0 0 0 0 0 0 0 0 0 0 0 0 0 0 0 0 0 0 0 0 0 0 0 0 0
-3 -2 0 0 0 0 0 0 0 0 0 -4 0 0 0 0 0 0 0 0 0 0 0 0 0 0 0 0 0 0 0 0 0 0 0 0 0 0 0 0 0 0 0 0
-1 0 0 0 0 0 0 0 0 0 0 0 0 0 0 0 0 0 0 0 0 0 0 0 0 0 0 0 0 0 0 0 0 0 0 0 0 0 0 0 0 0 0 0
0 0 0 0 0 0 0 0 0 0 0 0 0 0 0 0 0 0 0 0 0 0 0 0 0 0 0 0 0 0 0 0 0 0 0 0 0 0 0 0 0 0 0 0
0 0 0 0 0 0 0 0 0 0 0 0 0 0 0 0 0 0 0 0 0 0 0 0 0 0 0 0 0 0 0 0 0 0 0 0 0 0 0 0 0 0 0 0
0 0 0 0 0 0 0 0 0 0 0 0 0 0 0 0 0 0 0 0 0 0 0 0 0 0 0 0 0 0 0 0 0 0 0 0 0 0 0 0 0 0 0 0
0 0 0 0 0 0 0 0 0 0 0 0 0 0 0 0 0 0 0 0 0 0 0 0 0 0 0 0 0 0 0 0 0 0 0 0 0 0 0 0 0 0 0 0
0 0 0 0 0 0 0 0 0 0 0 0 0 0 0 0 0 0 0 0 0 0 0 0 0 0 0 0 0 0 0 0 0 0 0 0 0 0 0 0 0 0 0 0
0 0 0 0 0 0 0 0 0 0 0 0 0 0 0 0 0 0 0 0 0 0 0 0 0 0 0 0 0 0 0 0 0 0 0 0 0 0 0 0 0 0 0 0
0 0 0 0 0 0 0 0 0 0 0 0 0 0 0 0 0 0 0 0 0 0 0 0 0 0 0 0 0 0 0 0 0 0 0 0 0 0 0 0 0 0 0 0
0 0 0 0 0 0 0 0 0 0 0 0 0 0 0 0 0 0 0 0 0 0 0 0 0 0 0 0 0 0 0 0 0 0 0 0 0 0 0 0 0 0 0 0
0 0 0 0 0 0 0 0 0 0 0 0 0 0 0 0 0 0 0 0 0 0 0 0 0 0 0 0 0 0 0 0 0 0 0 0 0 0 0 0 0 0 0 0
0 0 0 0 0 0 0 0 0 0 0 0 0 0 0 0 0 0 0 0 0 0 0 0 0 0 0 0 0 0 0 0 0 0 0 0 0 0 0 0 0 0 0 0
0 0 0 0 0 0 0 0 0 0 0 0 0 0 0 0 0 0 0 0 0 0 0 0 0 0 0 0 0 0 0 0 0 0 0 0 0 0 0 0 0 0 0 0
Wind_Speed
29 33 38 38 45 52 54 58 64 57 58 61 66 63 62 55 54 51 51 52 51 52 50 44 42 41 39 38 37 36 32 32 31 33 33 33 33 31 29 28 27 26 25 25
33 38 39 38 41 45 50 57 61 63 61 57 64 70 65 58 58 56 55 53 51 49 46 44 40 39 40 42 39 38 37 33 33 33 33 34 34 33 33 31 30 28 27 25
39 41 38 39 44 47 46 49 56 59 59 58 55 70 66 61 57 56 55 54 54 54 53 49 44 42 39 41 41 40 39 36 34 34 33 33 30 31 33 34 34 31 29 27
33 41 39 42 44 41 49 43 46 52 59 67 50 74 58 55 59 56 55 53 53 52 50 50 47 44 44 40 38 38 39 39 37 34 35 36 38 38 37 35 34 33 30 29
33 32 35 35 35 33 40 37 41 45 52 58 58 56 60 52 57 55 53 53 52 48 46 46 46 43 39 37 37 36 38 38 38 39 38 39 41 40 36 35 34 34 33 31
15 13 24 30 31 30 30 30 35 38 44 58 59 54 55 48 50 50 48 50 48 47 46 48 49 47 45 41 40 39 38 41 39 38 38 41 42 40 38 36 35 35 34 33
24 10 9 12 26 24 26 27 35 39 43 56 50 54 60 36 37 42 44 44 42 40 41 44 44 44 43 42 39 39 40 42 40 41 40 39 41 41 41 38 37 36 36 36
30 26 7 9 3 29 23 23 30 38 41 48 46 52 62 49 46 34 32 33 36 36 35 38 37 38 38 39 38 38 38 42 43 41 43 41 38 39 40 39 38 38 37 36
27 23 19 15 9 12 23 22 21 34 31 38 38 36 49 45 53 53 49 44 37 33 32 31 32 33 35 35 36 37 37 37 38 41 42 42 41 41 38 38 39 38 36 35
22 27 13 6 18 22 4 13 19 21 29 36 27 24 25 27 35 33 35 34 32 31 31 30 30 30 31 33 36 37 38 39 38 38 38 39 40 41 41 37 37 38 36 34
26 17 17 18 11 7 17 17 13 16 19 27 22 14 15 16 17 22 24 24 26 27 28 29 30 31 32 32 33 36 37 38 37 37 37 38 37 35 37 37 37 34 33 33
24 21 19 22 15 11 28 8 9 17 18 21 21 15 15 14 14 14 14 16 19 21 23 24 25 26 27 28 29 31 33 35 36 34 35 37 37 35 33 35 34 33 33 33
26 19 24 17 5 9 9 14 21 26 29 31 23 17 14 13 12 14 15 17 18 19 19 20 21 22 24 25 26 27 28 31 31 32 33 34 36 37 36 34 31 32 33 30
23 22 18 19 20 14 9 15 19 24 22 19 22 18 19 17 16 17 17 18 19 20 20 21 20 20 21 22 23 25 26 26 27 28 30 33 34 35 35 35 33 32 31 31
20 23 21 16 16 7 21 12 7 8 12 13 13 13 17 19 18 19 20 21 21 22 23 22 22 21 20 20 21 22 24 25 24 25 28 30 29 31 31 32 33 32 32 30
26 23 20 17 14 15 15 16 10 7 9 10 11 12 20 19 19 21 22 21 21 22 23 24 23 22 21 20 20 20 21 21 22 21 23 25 26 26 28 28 28 29 30 29
20 19 18 15 13 13 12 10 12 10 12 11 13 15 18 16 17 21 23 24 24 25 26 25 24 23 23 21 20 20 20 19 18 18 18 19 20 22 23 23 24 25 26 26
19 18 17 16 13 10 13 12 10 11 14 12 12 14 15 16 15 20 23 23 24 26 26 25 24 23 22 20 20 19 20 19 17 18 17 17 15 17 18 19 21 23 24 25
17 18 17 16 13 12 13 15 13 11 9 12 12 16 16 16 15 18 23 23 24 24 24 24 23 21 20 20 21 20 20 18 17 17 19 16 16 15 17 19 21 22 23 25
17 17 18 18 17 16 18 19 18 16 16 21 21 20 19 18 18 22 24 23 23 23 23 22 21 20 19 20 20 20 20 20 20 16 17 19 15 15 15 17 19 21 23 24
19 18 19 20 19 18 20 21 18 18 20 22 22 22 23 22 22 23 24 24 24 24 23 22 22 21 20 20 19 18 19 20 20 17 17 16 16 17 16 15 16 18 20 22
20 20 19 19 20 21 24 19 18 20 22 23 24 24 25 25 26 26 26 26 25 25 25 24 23 22 21 20 19 18 18 19 18 17 17 16 16 16 16 13 14 14 17 18
21 20 21 19 19 19 20 19 20 19 21 21 22 24 25 25 25 26 26 26 26 26 25 25 24 23 23 22 20 19 18 18 18 17 17 16 15 16 16 15 13 12 14 16
22 19 18 20 17 19 17 18 20 19 19 20 20 21 22 23 24 24 25 25 25 25 25 25 25 24 23 23 21 20 19 18 18 17 17 17 17 16 16 16 16 16 16 17
25 20 20 20 18 18 16 17 19 18 18 19 19 20 21 22 22 23 24 24 25 25 26 26 25 25 24 23 22 21 20 20 19 18 18 17 18 18 17 16 17 17 18 18
12 17 20 22 16 18 18 16 17 17 17 17 18 18 20 21 23 24 24 25 26 27 27 27 27 26 26 25 24 22 21 20 19 19 19 18 18 17 18 17 17 17 18 18
Wind_Direction
294 284 276 276 270 267 266 263 259 260 256 256 255 256 254 255 255 254 254 253 253 253 255 257 254 253 252 251 250 248 246 244 241 242 242 245 247 249 249 246 245 246 249 250
295 283 281 278 279 272 266 262 260 259 256 260 256 255 255 255 253 254 254 253 253 254 255 255 254 253 251 250 249 247 246 244 242 243 243 248 249 251 250 248 247 248 249 249
292 285 286 280 276 271 268 264 260 259 257 257 263 256 254 253 255 254 254 255 254 253 253 255 255 254 254 251 248 246 246 245 243 244 245 248 250 254 250 248 248 248 248 249
303 290 286 281 276 272 266 266 266 261 255 253 258 255 255 254 252 253 253 253 253 254 254 254 256 255 253 253 252 250 246 245 245 242 243 241 246 249 251 251 248 248 247 250
305 308 297 288 278 274 270 273 269 265 259 256 251 259 257 257 250 250 252 253 253 255 255 256 255 256 256 255 252 251 249 247 245 244 244 245 248 252 253 251 248 248 248 249
242 236 261 274 280 278 279 279 273 270 261 255 250 251 256 253 250 252 253 253 255 258 259 259 259 259 258 257 256 255 252 250 246 244 244 246 247 249 250 248 247 247 247 249
304 236 197 198 294 294 284 276 271 265 259 258 255 250 248 258 262 255 256 257 258 262 262 261 261 260 259 257 257 255 252 250 247 245 245 247 247 247 248 247 247 245 246 248
317 311 217 97 25 295 300 279 270 267 265 264 258 254 249 253 259 266 262 260 266 271 269 264 264 264 263 260 258 256 253 251 248 247 247 248 248 248 250 249 248 246 246 246
305 280 277 262 255 225 312 288 282 272 278 270 265 266 256 261 259 260 260 265 272 269 268 269 269 268 267 265 263 259 256 254 252 250 250 250 251 249 250 250 249 248 247 246
283 278 266 254 292 21 102 351 304 274 272 263 270 267 260 268 263 265 262 265 269 270 268 269 270 270 272 272 267 264 260 257 255 253 251 251 251 252 252 251 249 247 246 245
288 243 263 283 274 269 319 330 319 297 277 257 250 278 290 291 293 272 269 272 273 275 275 274 274 274 274 275 273 268 263 259 258 254 253 252 251 252 251 251 250 246 244 242
287 266 264 285 258 52 311 111 151 287 271 260 259 276 309 313 312 312 299 294 287 286 284 284 282 280 280 278 277 274 268 264 260 257 254 253 252 250 250 250 248 246 244 243
283 264 286 284 123 45 284 254 228 231 239 239 248 264 285 296 312 314 306 298 296 300 303 299 294 289 284 284 282 280 277 270 265 259 255 254 252 251 250 250 247 245 245 242
266 266 251 262 274 287 292 289 235 200 238 249 255 262 283 291 300 307 310 297 292 295 301 304 301 299 295 291 287 285 281 278 272 264 259 256 254 253 251 250 247 245 242 242
256 264 261 247 254 177 339 319 276 311 258 261 265 275 284 293 306 299 306 307 304 302 298 298 294 295 298 295 293 291 287 283 278 271 264 260 258 255 253 251 248 245 244 241
268 264 263 262 186 277 324 344 343 277 285 329 308 304 306 297 308 316 310 307 304 305 299 297 297 296 296 296 297 298 298 292 285 279 271 266 261 257 254 250 247 245 243 242
254 256 265 245 261 214 253 291 338 335 336 261 327 281 296 310 327 331 317 318 310 311 308 301 296 291 291 301 305 297 296 300 297 288 281 274 266 258 254 250 246 243 241 240
256 256 258 249 253 239 217 304 292 342 347 332 311 307 303 296 327 343 335 327 321 321 318 313 308 304 304 308 305 310 301 305 304 296 287 278 271 263 255 248 246 244 244 244
279 263 260 256 253 262 301 303 274 267 286 318 310 321 313 298 327 332 330 326 323 321 317 314 313 309 307 301 295 297 298 303 304 300 277 288 276 269 262 254 250 250 250 251
307 279 275 277 261 274 310 301 304 343 295 329 327 323 316 321 335 326 318 318 321 326 326 328 328 323 311 311 305 298 295 297 294 298 291 280 284 281 270 265 260 259 257 257
308 294 285 281 280 287 306 294 297 298 305 310 319 321 326 330 319 297 311 320 323 331 329 334 340 334 325 323 316 305 299 296 293 303 289 292 283 281 276 276 272 266 262 261
310 305 300 296 290 289 313 317 314 316 324 324 326 332 329 334 332 338 335 327 325 332 336 335 335 333 328 327 329 309 307 303 304 302 293 291 289 287 281 283 279 276 266 263
316 326 311 312 309 328 337 346 344 346 339 345 344 345 347 347 344 345 342 344 344 341 338 339 340 342 341 329 326 321 312 310 307 304 300 297 297 290 286 284 285 283 278 269
316 333 332 324 339 340 344 348 344 347 351 353 354 354 358 356 353 351 348 348 343 339 336 338 341 337 336 337 333 327 319 315 311 309 300 294 291 291 290 287 284 282 279 276
303 312 314 318 327 340 345 344 345 349 349 348 350 353 358 357 352 348 344 344 343 342 338 337 338 335 330 334 334 331 324 317 313 308 304 300 294 289 289 290 286 284 281 278
331 310 304 308 331 326 331 343 342 345 350 356 2 6 358 356 355 354 352 350 346 343 340 338 335 332 329 328 327 328 326 321 316 310 307 302 299 294 290 288 287 287 283 281